Regional Weather Roundup
Issued by NWS

Home | Current Version | Previous Version | Graphics & Text | Print | Product List | Glossary On
Versions: 1 2 3 4 5 6 7 8 9 10 11 12 13 14 15 16 17 18 19 20 21 22 23 24 25 26 27 28 29 30 31 32 33 34 35 36 37 38 39 40 41 42 43 44 45 46 47 48 49 50
000
ASUS43 KLOT 271604
RWRIL

ILLINOIS REGIONAL WEATHER ROUNDUP
NATIONAL WEATHER SERVICE CHICAGO/ROMEOVILLE IL
1100 AM CDT TUE JUN 27 2017

NOTE: "FAIR" INDICATES FEW OR NO CLOUDS BELOW 12,000 FEET WITH NO
SIGNIFICANT WEATHER AND/OR OBSTRUCTIONS TO VISIBILITY.

* THESE STATIONS ARE NOT UNDER NWS QUALITY CONTROL. THEY ALSO MAY NOT
  REPORT WEATHER SUCH AS PRECIPITATION OR FOG.

ILZ001-002-007-009-015-016-024-271700-
NORTHWEST ILLINOIS

CITY           SKY/WX    TMP DP  RH WIND       PRES   REMARKS
MOLINE         SUNNY     73  46  38 N6        30.15F
STERLING*      SUNNY     70  48  45 W8        30.15F
SAVANNA*       SUNNY     70  45  41 W5        30.14F
$$

ILZ003-004-008-010-011-017-018-271700-
NORTH CENTRAL ILLINOIS

CITY           SKY/WX    TMP DP  RH WIND       PRES   REMARKS
ROCKFORD       MOSUNNY   72  46  39 NW9       30.15S
FREEPORT*      SUNNY     69  44  41 W7        30.16S
ROCHELLE*      SUNNY     68  48  47 W6        30.15S
DE KALB*       SUNNY     70  47  44 NW7       30.16R
PERU*          SUNNY     68  46  45 W7        30.16S
$$

ILZ005-006-012>014-019>023-271700-
NORTHEAST ILLINOIS

CITY           SKY/WX    TMP DP  RH WIND       PRES   REMARKS
CHICAGO-OHARE  MOSUNNY   71  44  37 NW13      30.12F
CHICAGO-MIDWAY MOSUNNY   71  46  40 NW9       30.13F
AURORA         SUNNY     71  45  39 NW8       30.15F
LANSING*       MOSUNNY   70  44  38 NW10      30.15S
JOLIET*        SUNNY     71  47  42 NW8       30.15F
WAUKEGAN       SUNNY     69  48  47 VRB7      30.11F
DUPAGE AIRPORT SUNNY     69  47  45 VRB7      30.13F
WHEELING       SUNNY     70  48  45 NW10G16   30.14S
MORRIS*        MOSUNNY   71  46  40 W8G16     30.14F
ROMEOVILLE*    SUNNY     71  42  35 W6G18     30.14F
$$

LMZ740>746-271700-
SOUTHERN LAKE MICHIGAN

STATION/POSITION SKY/WX   TEMP    WIND        PRES    VSBY  WAVE
                          AIR SEA DIR/SP/G                  HT/PER
                          (F)     (DEG/KT/KT) (MB)    (MI)  (FT/S)
SOUTHERN BUOY              60 61  300/ 10/ 12 1019.8          2/ 3
WILMETTE HARBOR            66 63  100/  2/  2   N/A           1/ 4
HARRISON CRIB              66     100/  4/  4   N/A
BURNHAM HARBOR             69                   N/A
CALUMET HARBOR             67     290/  8/ 11 1020.0S
BURNS HARBOR               65     290/  8/ 10 1021.0F
MICHIGAN CITY              63     240/ 11/ 12   N/A
MICHIGAN CITY 6N           63 65  270/ 10/ 12   N/A           2/ 5
ST. JOSEPH                 63 69  270/ 12/ 16 1020.6S         2/ 5
$$

ILZ025>027-034>036-040-047-049-050-058-095>099-271700-
WEST-CENTRAL ILLINOIS

CITY           SKY/WX    TMP DP  RH WIND       PRES   REMARKS
QUINCY         SUNNY     70  52  52 VRB3      30.15F
GALESBURG*     SUNNY     69  46  43 CALM      30.17S
MACOMB*        SUNNY     70  40  34 CALM      30.19S
JACKSONVILLE*  PTSUNNY   71  51  48 NE5       30.15F
PITTSFIELD*    SUNNY     72  54  53 S3        30.17S
$$

ILZ028>032-037-038-041>044-048-051>054-059>061-271700-
CENTRAL ILLINOIS

CITY           SKY/WX    TMP DP  RH WIND       PRES   REMARKS
PONTIAC        SUNNY     71  45  39 W6        30.17F
DECATUR        SUNNY     69  44  40 CALM      30.17F
PEORIA         SUNNY     70  43  37 CALM      30.16F
LACON*         SUNNY     69  49  47 SW7       30.15F
LINCOLN*       SUNNY     70  48  45 CALM      30.18S
SPRINGFIELD    SUNNY     73  49  42 VRB5      30.16F
TAYLORVILLE    SUNNY     71  48  45 CALM      30.17F
$$

ILZ033-039-045-046-055>057-062-063-271700-
EAST-CENTRAL ILLINOIS

CITY           SKY/WX    TMP DP  RH WIND       PRES   REMARKS
CHAMPAIGN      SUNNY     71  42  35 NW8       30.17F
RANTOUL*       SUNNY     71  46  41 CALM      30.17S
MATTOON        SUNNY     70  49  47 NE5       30.17F
PARIS*         SUNNY     68  51  54 NE3       30.18S
$$

ILZ079-100>102-271700-
SOUTHWEST ILLINOIS

CITY           SKY/WX    TMP DP  RH WIND       PRES   REMARKS
BELLEVILLE     SUNNY     73  55  53 W3        30.16F
CAHOKIA*       MOSUNNY   76  52  43 VRB6      30.15F
SPARTA*        SUNNY     73  53  50 E6        30.16F
$$

ILZ064>066-069>071-074>076-080>082-084>086-088>090-092>094-271700-
SOUTH-CENTRAL ILLINOIS

CITY           SKY/WX    TMP DP  RH WIND       PRES   REMARKS
CARBONDALE     SUNNY     73  52  47 S8        30.15F
CAIRO*         SUNNY     74  56  52 NE8       30.14F
EFFINGHAM*     SUNNY     71  50  46 E3        30.20R
MARION         SUNNY     73  54  49 MISG      30.16F
MT. VERNON     SUNNY     72  56  57 VRB3      30.16
CENTRALIA*     SUNNY     74  56  55 S3        30.16S
SALEM*         SUNNY     73  54  51 CALM      30.17S
METROPOLIS*    SUNNY     74  53  48 E5        30.15S
$$

ILZ067-068-072-073-078-083-087-091-271700-
SOUTHEAST ILLINOIS

CITY           SKY/WX    TMP DP  RH WIND       PRES   REMARKS
LAWRENCEVILLE  SUNNY     71  49  45 VRB3      30.18S
FLORA*         SUNNY     74  55  50 NE6       30.17S
FAIRFIELD*     SUNNY     72  54  53 CALM      30.16S
HARRISBURG*    SUNNY     73  56  56 NE5       30.16F
ROBINSON*      SUNNY     69  50  49 NE5       30.19S
CARMI*         SUNNY     72  53  51 CALM      30.15F
$$

ABBREVIATIONS USED IN REMARKS
   TC - TEMPERATURE IN CELSIUS
  WCI - WIND CHILL INDEX
   HX - HEAT INDEX
  VSB - VISIBILITY
$$




USA.gov is the U.S. government's official web portal to all federal, state and local government web resources and services.